Regional Weather Roundup
Issued by NWS

Home | Current Version | Previous Version | Graphics & Text | Print | Product List | Glossary On
Versions: 1 2 3 4 5 6 7 8 9 10 11 12 13 14 15 16 17 18 19 20 21 22 23 24 25 26 27 28 29 30 31 32 33 34 35 36 37 38 39 40 41 42 43 44 45 46 47 48 49 50
734
ASUS43 KDMX 201801
RWRIA

WEATHER ROUNDUP FOR IOWA
NATIONAL WEATHER SERVICE DES MOINES IA
1200 PM CST FRI JAN 20 2017

NOTE: "FAIR" INDICATES FEW OR NO CLOUDS BELOW 12,000 FEET WITH NO
SIGNIFICANT WEATHER AND/OR OBSTRUCTIONS TO VISIBILITY.

* - THESE STATIONS ARE NOT NWS STATIONS...THUS NOT UNDER NWS
QUALITY CONTROL.  THEY ALSO DO NOT REPORT WEATHER SUCH
AS PRECIPITATION OR FOG.

IAZ001>003-012>014-020>022-031>034-043>046-201900-
   NORTHWEST IOWA

CITY           SKY/WX    TMP DP  RH WIND       PRES   REMARKS
CARROLL *      MIX PCPN  39  39 100 E8        29.53F VSB<1/4 WCI  34
CHEROKEE *     CLOUDY    39  39 100 S5        29.53F FOG
DENISON *      PTSUNNY   39  39 100 SE8       29.51F WCI  34
LE MARS *      CLOUDY    41  41 100 SE13      29.51F FOG
ORANGE CITY *  CLOUDY    37  37 100 SE6       29.50F FOG     WCI  33
SHELDON *      CLOUDY    37  37 100 SE14      29.50F FOG     WCI  29
SIOUX CITY     CLOUDY    42  41  96 SE8       29.50F FOG
6HR MIN TEMP:  38; 6HR MAX TEMP:  42;

SPENCER        FOG       38  38 100 SE9       29.53F VSB 1/2 WCI  31
6HR MIN TEMP:  34; 6HR MAX TEMP:  38;

STORM LAKE *   FOG       37  37 100 SE7       29.53F VSB<1/4 WCI  32
$$

IAZ055>058-069>071-079>083-090>094-201900-
   SOUTHWEST IOWA

CITY           SKY/WX    TMP DP  RH WIND       PRES   REMARKS
ATLANTIC *     CLOUDY    41  41 100 E7        29.53F
AUDUBON *      CLOUDY    39  37  93 CALM      29.55F FOG
CLARINDA *     CLOUDY    43  43 100 SE3       29.56F
COUNCIL BLFS * CLOUDY    43  43 100 SE7       29.52F
CRESTON *      FOG       39  39 100 SE8       29.56F VSB 1/2 WCI  34
HARLAN  *      CLOUDY    41  41 100 E9        29.56F FOG
LAMONI         CLOUDY    41  41 100 E6        29.55F FOG
6HR MIN TEMP:  37; 6HR MAX TEMP:  41;

RED OAK *      CLOUDY    43  43 100 E5        29.55F
SHENANDOAH *   CLOUDY    43  43 100 SE10      29.55S
$$

IAZ047>049-059>061-072>074-084-201900-
   CENTRAL IOWA

CITY           SKY/WX    TMP DP  RH WIND       PRES   REMARKS
AMES           FOG       38  38 100 S5        29.58F VSB 1/2 WCI  34
6HR MIN TEMP:  35; 6HR MAX TEMP:  38;

ANKENY *       CLOUDY    39  39 100 E5        29.57F FOG
BOONE *        FOG       37  37 100 S6        29.56F VSB<1/4 WCI  33
CHARITON *     CLOUDY    41  41 100 E7        29.56F
DES MOINES     CLOUDY    41  40  96 E6        29.57F FOG
6HR MIN TEMP:  37; 6HR MAX TEMP:  41;

GRINNELL*      FOG       38  37  99 E6        29.57F VSB 1/4 WCI  33
KNOXVILLE *    CLOUDY    41  41 100 E7        29.56F
MARSHALLTOWN   FOG       37  37 100 SE6       29.57F VSB 1/4 WCI  32
6HR MIN TEMP:  34; 6HR MAX TEMP:  37;

NEWTON *       FOG       39  37  93 SE7       29.57F VSB 1/4 WCI  34
PELLA *        FOG       39  38  98 E5        29.59F VSB 1/4
PERRY *        CLOUDY    39  38  99 E3        29.56F FOG
$$

IAZ004>006-015-016-023>025-035-036-201900-
   NORTH CENTRAL IOWA

CITY           SKY/WX    TMP DP  RH WIND       PRES   REMARKS
ALGONA *       FOG       36  36 100 CALM      29.55F VSB 1/4
CLARION *      CLOUDY    37  37 100 SE7       29.57F WCI  32
ESTHERVILLE    FOG       34  34 100 SE9       29.54F VSB 1/4 WCI  27
6HR MIN TEMP:  32; 6HR MAX TEMP:  35;

FORT DODGE *   CLOUDY    36  34  93 S3        29.56F
MASON CITY     FOG       34  34 100 SE6       29.57F VSB 1/4 WCI  29
6HR MIN TEMP:  33; 6HR MAX TEMP:  34;

FOREST CITY *  FOG       34  34 100 SE9       29.57F VSB 1/2 WCI  26
WEBSTER CITY * CLOUDY    37  37 100 E6        29.54F FOG     WCI  33
IOWA FALLS *   FOG       37  36  98 SE8       29.59F VSB 1/4 WCI  30
$$

IAZ007>011-017>019-026>030-037>042-050>054-066-201900-
   NORTHEAST IOWA

CITY           SKY/WX    TMP DP  RH WIND       PRES   REMARKS
CEDAR RAPIDS   CLOUDY    38  38 100 SE3       29.58F FOG
6HR MIN TEMP:  34; 6HR MAX TEMP:  38;

CHARLES CITY * FOG       36  36 100 SE7       29.58F VSB<1/4 WCI  30
CLINTON *      CLOUDY    39  39 100 SE7       29.62F FOG     WCI  34
DECORAH *      FOG       36  34  93 SE3       29.59F VSB<1/4
DUBUQUE        CLOUDY    37  37 100 SE6       29.60F FOG     WCI  32
6HR MIN TEMP:  34; 6HR MAX TEMP:  37;

MONTICELLO *   CLOUDY    39  39 100 S10       29.60F FOG     WCI  32
OELWEIN *      FOG       36  36 100 SE6       29.59F VSB 1/4 WCI  31
WATERLOO       CLOUDY    38  36  92 SE6       29.59F FOG     WCI  33
6HR MIN TEMP:  34; 6HR MAX TEMP:  38;

$$

IAZ064-065-067-068-078-201900-
   EAST CENTRAL IOWA

CITY           SKY/WX    TMP DP  RH WIND       PRES   REMARKS
DAVENPORT      CLOUDY    41  39  93 S8        29.61F
6HR MIN TEMP:  35; 6HR MAX TEMP:  41;

IOWA CITY      CLOUDY    40  38  93 S3        29.61F FOG
6HR MIN TEMP:  36; 6HR MAX TEMP:  40;

MUSCATINE *    CLOUDY    41  39  93 SE5       29.61F FOG
QUAD CITIES    CLOUDY    43  39  86 SW5       29.61F
6HR MIN TEMP:  36; 6HR MAX TEMP:  42;

$$

IAZ062-063-075>077-085>089-095>099-201900-
   SOUTHEAST IOWA

CITY           SKY/WX    TMP DP  RH WIND       PRES   REMARKS
BURLINGTON     CLOUDY    41  41 100 CALM      29.58F FOG
6HR MIN TEMP:  37; 6HR MAX TEMP:  41;

FAIRFIELD *    FOG       41  41 100 E7        29.58F VSB 1/4
FORT MADISON * CLOUDY    43  43 100 CALM      29.60F FOG
KEOKUK *       FOG       45 N/A N/A E3        29.58F VSB 1/2
OSKALOOSA *    FOG       38  38  99 E6        29.58F VSB 1/4 WCI  33
OTTUMWA        FOG       40  39  97 E6        29.57F VSB 1/4
6HR MIN TEMP:  36; 6HR MAX TEMP:  40;

WASHINGTON *   FOG       39  39 100 E6        29.60F VSB 1/4 WCI  35
$$

ABBREVIATIONS USED IN REMARKS
   TC - TEMPERATURES IN CELSIUS
  WCI - WIND CHILL INDEX
   HX - HEAT INDEX
  VSB - VISIBILITY
$$





USA.gov is the U.S. government's official web portal to all federal, state and local government web resources and services.